Tracking 18852 objects as of 23-Nov-2017
HD Live streaming from Space Station
objects crossing your sky now

ORBCOMM FM 111

Track ORBCOMM FM 111 now!
10-day predictions
ORBCOMM FM 111 is classified as:


NORAD ID: 40089
Int'l Code: 2014-040D
Perigee: 621.0 km
Apogee: 671.1 km
Inclination: 47.0 °
Period: 97.5 minutes
Semi major axis: 7017 km
RCS: Unknown
Launch date: July 14, 2014
Source: United States (US)
Launch site: AIR FORCE EASTERN TEST RANGE (AFETR)
aabbcc
Your satellite tracking list
Your tracking list is empty




NASA's NSSDC Master Catalog

Two Line Element Set (TLE):
1 40089U 14040D   17326.20098068  .00000125  00000-0  46366-4 0  9999
2 40089  47.0065 218.0578 0035762  65.6030 294.8589 14.76969555181124
Source of the keplerian elements: AFSPC